Location: Taukkyan
(23.1052°N, 94.0030°E)
Time: 11:48:23
(UTC+00:00)

Cosmos 1743 - Pass Details

Date: 06 July 2020
Orbit: 511 x 526 km, 82.6° (Epoch: 14 August)

Event Time Altitude Azimuth Distance (km) Brightness Sun altitude
Exits shadow 22:16:28 14° 255° (WSW) 1,487 4.4 -10.5°
Maximum altitude 22:17:47 16° 280° (W) 1,377 4.4 -10.3°
Drops below altitude 10° 22:20:13 10° 320° (NW) 1,731 5.3 -9.8°
Sets 22:22:59 0° 342° (NNW) 2,621 6.4 -9.2°
